DL1GHN-6 Weather Reports


time (UTC)temp
C
wind
direction
speed
KPH
gust
KPH
rain 1hr
cm
rain 24hr
cm
rain mn
cm
humidity
%
barometer
mb
20260506003017 13 163 3.2 8.0 0.00 0.61 0.00 83 1007.7
20260506002518 13 201 3.2 6.4 0.00 0.61 0.00 83 1007.7
20260506002018 13 175 1.6 4.8 0.00 0.61 0.00 83 1007.8
20260506001517 13 192 1.6 4.8 0.00 0.61 0.00 83 1007.9
20260506001017 13 153 1.6 8.0 0.00 0.61 0.00 83 1008.0
20260506000517 13 152 3.2 6.4 0.00 0.61 0.00 84 1008.2
20260506000017 13 177 3.2 6.4 0.00 0.61 0.00 84 1008.2
20260505235517 13 174 3.2 8.0 0.00 0.61 0.00 84 1008.3
20260505235017 12 188 4.8 8.0 0.00 0.61 0.00 84 1008.3
20260505234519 12 184 3.2 11.3 0.00 0.61 0.00 85 1008.3
20260505234018 12 236 3.2 4.8 0.00 0.61 0.00 84 1008.3
20260505233519 12 194 1.6 4.8 0.00 0.61 0.00 84 1008.1
20260505233019 12 184 1.6 3.2 0.00 0.61 0.00 85 1008.0
20260505232518 12 157 3.2 6.4 0.00 0.61 0.00 85 1008.0
20260505232019 13 153 3.2 6.4 0.00 0.61 0.00 84 1008.1
20260505231518 13 174 1.6 4.8 0.00 0.61 0.00 84 1008.1
20260505231019 13 192 0.0 4.8 0.00 0.61 0.00 84 1008.2
20260505230519 13 148 0.0 4.8 0.00 0.61 0.00 84 1008.2
20260505230017 13 172 1.6 4.8 0.00 0.61 0.00 84 1008.2
20260505225518 13 160 1.6 6.4 0.00 0.61 0.00 84 1008.3
20260505225018 13 142 3.2 4.8 0.00 0.61 0.00 84 1008.4
20260505224518 13 160 1.6 4.8 0.00 0.61 0.00 84 1008.4
20260505224019 13 155 3.2 6.4 0.00 0.61 0.00 84 1008.5
20260505223518 13 217 4.8 11.3 0.00 0.61 0.00 84 1008.6
20260505223018 13 165 4.8 11.3 0.00 0.61 0.00 84 1008.7
20260505222517 13 195 3.2 8.0 0.00 0.61 0.00 84 1008.7
20260505222018 13 177 3.2 9.7 0.00 0.61 0.00 85 1008.5
20260505221518 13 182 4.8 9.7 0.00 0.61 0.00 85 1008.5
20260505221017 13 175 9.7 17.7 0.00 0.61 0.00 85 1008.5
20260505220517 13 162 4.8 11.3 0.00 0.61 0.00 85 1008.4
20260505220018 13 182 4.8 11.3 0.00 0.61 0.00 85 1008.5
20260505215518 13 193 4.8 9.7 0.00 0.61 0.61 85 1008.4
20260505215018 13 167 4.8 9.7 0.00 0.61 0.61 85 1008.4
20260505214518 13 211 4.8 8.0 0.00 0.61 0.61 85 1008.3
20260505214018 13 166 8.0 12.9 0.00 0.61 0.61 85 1008.4
20260505213518 13 192 8.0 12.9 0.00 0.61 0.61 85 1008.4
20260505213018 13 193 8.0 16.1 0.00 0.61 0.61 85 1008.4
20260505212517 13 200 3.2 11.3 0.00 0.61 0.61 85 1008.4
20260505212018 13 205 1.6 6.4 0.00 0.61 0.61 85 1008.4
20260505211518 13 171 1.6 6.4 0.00 0.61 0.61 85 1008.3
20260505211017 13 143 3.2 6.4 0.00 0.61 0.61 85 1008.4
20260505210518 13 177 3.2 6.4 0.00 0.61 0.61 85 1008.4
20260505210019 13 176 3.2 8.0 0.00 0.61 0.61 85 1008.4
20260505205518 13 161 3.2 6.4 0.00 0.61 0.61 84 1008.4
20260505205019 13 171 4.8 8.0 0.00 0.61 0.61 85 1008.3
20260505204517 13 138 4.8 11.3 0.00 0.61 0.61 85 1008.3
20260505204019 13 155 6.4 11.3 0.00 0.61 0.61 85 1008.3
20260505203519 13 196 6.4 12.9 0.00 0.61 0.61 85 1008.3
20260505203017 13 206 6.4 12.9 0.00 0.61 0.61 85 1008.3
20260505202518 14 227 6.4 14.5 0.00 0.61 0.61 84 1008.2
20260505202017 14 159 6.4 9.7 0.00 0.61 0.61 85 1008.2
20260505201517 14 159 4.8 8.0 0.00 0.61 0.61 85 1008.1
20260505201018 14 171 6.4 9.7 0.00 0.61 0.61 84 1008.2
20260505200517 14 175 4.8 9.7 0.00 0.61 0.61 84 1008.1
20260505200018 14 188 6.4 11.3 0.00 0.61 0.61 84 1008.1
20260505195517 14 203 8.0 12.9 0.00 0.61 0.61 85 1008.0
20260505195017 14 165 4.8 11.3 0.00 0.61 0.61 85 1008.1
20260505194518 14 177 6.4 12.9 0.00 0.61 0.61 85 1008.0
20260505194018 14 199 4.8 12.9 0.00 0.61 0.61 85 1008.0
20260505193518 14 220 3.2 16.1 0.00 0.61 0.61 86 1008.0
20260505193018 14 165 4.8 9.7 0.00 0.61 0.61 86 1007.9
20260505192517 14 171 4.8 11.3 0.00 0.61 0.61 86 1007.9
20260505192018 14 155 8.0 11.3 0.00 0.61 0.61 87 1007.8
20260505191519 14 183 4.8 8.0 0.00 0.61 0.61 87 1007.8
20260505191018 14 189 4.8 6.4 0.00 0.61 0.61 87 1007.6
20260505190518 14 164 3.2 4.8 0.00 0.61 0.61 87 1007.6
20260505190018 14 165 1.6 4.8 0.00 0.61 0.61 87 1007.6
20260505185519 14 165 1.6 3.2 0.00 0.64 0.61 87 1007.6
20260505185017 14 150 3.2 4.8 0.00 0.64 0.61 86 1007.6
20260505184517 14 147 1.6 3.2 0.00 0.64 0.61 86 1007.6
20260505184019 14 179 0.0 4.8 0.00 0.64 0.61 86 1007.6
20260505183517 14 199 3.2 6.4 0.00 0.64 0.61 86 1007.6
20260505183018 14 184 3.2 6.4 0.00 0.64 0.61 86 1007.6
20260505182517 14 160 4.8 8.0 0.00 0.64 0.61 87 1007.5
20260505182017 14 172 3.2 6.4 0.00 0.64 0.61 87 1007.4
20260505181517 14 169 1.6 4.8 0.00 0.64 0.61 87 1007.3
20260505181017 14 182 0.0 4.8 0.00 0.64 0.61 87 1007.2
20260505180517 14 144 1.6 4.8 0.00 0.64 0.61 86 1007.3
20260505180017 15 183 1.6 3.2 0.00 0.64 0.61 86 1007.4
20260505175518 15 171 0.0 6.4 0.00 0.64 0.61 86 1007.3
20260505175017 15 188 3.2 11.3 0.00 0.64 0.61 86 1007.3
20260505174518 15 184 4.8 6.4 0.00 0.64 0.61 87 1007.4
20260505174017 15 186 3.2 6.4 0.00 0.64 0.61 87 1007.4
20260505173519 15 244 3.2 6.4 0.00 0.64 0.61 87 1007.4
20260505173019 15 212 3.2 4.8 0.00 0.64 0.61 87 1007.5
20260505172519 14 190 4.8 8.0 0.00 0.64 0.61 87 1007.5
20260505172018 14 241 3.2 9.7 0.00 0.64 0.61 87 1007.5
20260505171518 14 198 3.2 11.3 0.00 0.64 0.61 87 1007.5
20260505171017 14 188 1.6 6.4 0.00 0.64 0.61 87 1007.5
20260505170517 14 169 3.2 12.9 0.00 0.64 0.61 87 1007.5
20260505170017 14 175 3.2 9.7 0.03 0.64 0.61 87 1007.5
20260505165517 14 207 1.6 9.7 0.03 0.64 0.61 87 1007.5
20260505165018 14 120 4.8 9.7 0.05 0.64 0.61 87 1007.3
20260505164518 14 169 3.2 9.7 0.05 0.64 0.61 87 1007.4
20260505164017 14 185 4.8 11.3 0.23 0.64 0.61 87 1007.5
20260505163518 14 182 6.4 12.9 0.43 0.64 0.61 86 1007.4
20260505163017 15 186 8.0 14.5 0.53 0.64 0.61 86 1007.5
20260505162517 15 217 8.0 14.5 0.56 0.64 0.61 87 1007.5
20260505162017 15 203 3.2 11.3 0.56 0.64 0.61 87 1007.5
20260505161519 15 175 6.4 11.3 0.56 0.64 0.61 86 1007.3
20260505161017 15 199 4.8 11.3 0.56 0.64 0.61 86 1007.4
20260505160518 15 230 8.0 12.9 0.56 0.64 0.61 85 1007.4
20260505153018 18 5 3.2 4.8 0.03 0.10 0.08 76 1007.0
20260505152517 18 321 1.6 4.8 0.00 0.08 0.05 73 1007.1
20260505152018 18 16 1.6 3.2 0.00 0.08 0.05 72 1007.0
20260505151518 18 5 1.6 6.4 0.00 0.08 0.05 71 1007.0
20260505151017 18 17 1.6 8.0 0.00 0.08 0.05 73 1007.0
20260505150517 18 63 1.6 6.4 0.00 0.08 0.05 72 1007.0
20260505140518 19 83 1.6 4.8 0.00 0.08 0.05 71 1007.2
20260505125017 17 355 1.6 6.4 0.00 0.08 0.05 80 1008.0
20260505124518 17 308 1.6 4.8 0.00 0.08 0.05 80 1008.0
20260505124017 17 135 4.8 8.0 0.00 0.08 0.05 78 1008.1
20260505123517 17 344 0.0 4.8 0.00 0.08 0.05 80 1008.1
20260505123017 17 355 1.6 4.8 0.00 0.08 0.05 82 1008.1
20260505122518 17 279 1.6 4.8 0.00 0.08 0.05 80 1008.1
20260505122017 16 279 0.0 6.4 0.00 0.08 0.05 81 1008.1
20260505121518 17 56 1.6 4.8 0.00 0.08 0.05 80 1008.2
20260505121018 17 9 1.6 4.8 0.00 0.08 0.05 81 1008.3
20260505120518 17 285 3.2 8.0 0.00 0.08 0.05 82 1008.4
20260505120018 17 29 4.8 8.0 0.00 0.08 0.05 82 1008.4
20260505115518 16 355 0.0 8.0 0.00 0.08 0.05 82 1008.4
20260505115017 16 281 3.2 6.4 0.00 0.08 0.05 82 1008.4
20260505114518 16 327 1.6 6.4 0.00 0.08 0.05 83 1008.4
20260505114017 16 273 1.6 3.2 0.00 0.08 0.05 83 1008.5
20260505113519 16 51 1.6 6.4 0.00 0.08 0.05 82 1008.5
20260505113017 16 303 1.6 4.8 0.00 0.08 0.05 82 1008.6
20260505112518 16 327 1.6 4.8 0.00 0.08 0.05 82 1008.6
20260505112018 16 286 0.0 4.8 0.00 0.08 0.05 83 1008.6
20260505111517 16 273 0.0 3.2 0.00 0.08 0.05 83 1008.6
20260505111019 16 317 1.6 4.8 0.00 0.08 0.05 83 1008.7
20260505110517 16 300 1.6 4.8 0.00 0.08 0.05 82 1008.6
20260505102018 17 333 1.6 3.2 0.00 0.08 0.05 79 1008.8
20260505101519 16 290 1.6 6.4 0.00 0.08 0.05 78 1008.8
20260505101017 17 314 1.6 4.8 0.00 0.08 0.05 78 1008.7
20260505100519 17 343 4.8 6.4 0.00 0.08 0.05 78 1008.7
20260505100019 17 307 3.2 8.0 0.00 0.08 0.05 77 1008.7
20260505095518 17 355 1.6 4.8 0.00 0.08 0.05 77 1008.7
20260505095019 17 273 3.2 4.8 0.00 0.08 0.05 78 1008.8
20260505094517 17 290 3.2 8.0 0.00 0.08 0.05 76 1008.8
20260505094019 17 233 6.4 9.7 0.00 0.08 0.05 78 1008.9
20260505093518 16 252 1.6 4.8 0.00 0.08 0.05 78 1008.9
20260505093017 16 232 1.6 3.2 0.00 0.08 0.05 78 1009.0
20260505092517 16 234 1.6 4.8 0.00 0.08 0.05 78 1009.0
20260505092017 16 248 0.0 6.4 0.00 0.08 0.05 78 1009.1
20260505091517 17 141 1.6 3.2 0.00 0.08 0.05 80 1009.1
20260505091018 16 88 1.6 3.2 0.00 0.08 0.05 80 1009.2
20260505090517 16 186 1.6 4.8 0.00 0.08 0.05 82 1009.2
20260505090018 16 226 3.2 6.4 0.00 0.08 0.05 82 1009.3
20260505085518 16 253 1.6 4.8 0.00 0.08 0.05 82 1009.3
20260505085018 16 304 1.6 6.4 0.00 0.08 0.05 82 1009.3
20260505084518 16 288 4.8 8.0 0.00 0.08 0.05 84 1009.3
20260505084017 15 258 4.8 6.4 0.00 0.08 0.05 84 1009.3
20260505083518 15 234 0.0 4.8 0.03 0.08 0.05 84 1009.4
20260505083019 15 265 6.4 8.0 0.03 0.08 0.05 86 1009.3
20260505082518 15 263 1.6 4.8 0.05 0.08 0.05 87 1009.3
20260505082018 15 17 0.0 4.8 0.05 0.08 0.05 86 1009.5
20260505081517 14 252 0.0 3.2 0.05 0.08 0.05 86 1009.4
20260505081018 14 134 0.0 1.6 0.05 0.08 0.05 86 1009.4
20260505080518 14 120 0.0 1.6 0.05 0.08 0.05 86 1009.5
20260505080018 14 162 0.0 1.6 0.05 0.08 0.05 87 1009.5
20260505075517 14 134 0.0 0.0 0.05 0.08 0.05 87 1009.5
20260505075017 14 126 0.0 0.0 0.05 0.08 0.05 87 1009.5
20260505074518 14 123 0.0 0.0 0.05 0.08 0.05 87 1009.6
20260505074017 14 135 0.0 1.6 0.05 0.08 0.05 87 1009.7
20260505073517 13 136 0.0 1.6 0.05 0.05 0.05 87 1009.7
20260505073017 13 238 0.0 3.2 0.05 0.05 0.05 87 1009.7
20260505072518 13 217 0.0 3.2 0.03 0.05 0.03 86 1009.8
20260505072017 13 192 1.6 3.2 0.03 0.05 0.03 86 1009.9
20260505071518 13 224 0.0 1.6 0.03 0.05 0.03 86 1009.9
20260505071017 13 148 3.2 4.8 0.00 0.03 0.00 86 1009.9
20260505070517 13 150 3.2 6.4 0.00 0.03 0.00 87 1010.0
20260505070019 13 147 1.6 4.8 0.00 0.03 0.00 87 1010.0
20260505065518 13 180 1.6 4.8 0.00 0.03 0.00 86 1010.0
20260505065019 13 188 3.2 6.4 0.00 0.03 0.00 87 1010.0
20260505064517 13 234 1.6 3.2 0.00 0.03 0.00 87 1010.0
20260505064019 13 188 3.2 4.8 0.00 0.03 0.00 88 1010.0
20260505063519 13 163 1.6 8.0 0.00 0.03 0.00 88 1010.0
20260505063017 13 223 1.6 8.0 0.00 0.03 0.00 88 1010.0
20260505062517 13 185 0.0 4.8 0.00 0.03 0.00 89 1009.9
20260505062017 13 252 1.6 3.2 0.00 0.03 0.00 89 1009.9
20260505061517 13 190 0.0 3.2 0.00 0.03 0.00 89 1009.9
20260505061018 13 200 1.6 3.2 0.00 0.03 0.00 89 1009.9
20260505060517 12 174 1.6 3.2 0.00 0.03 0.00 89 1009.9
20260505060018 12 157 0.0 3.2 0.00 0.03 0.00 89 1009.8
20260505055517 12 188 0.0 3.2 0.00 0.03 0.00 89 1009.8
20260505055017 12 141 0.0 1.6 0.00 0.03 0.00 89 1009.8
20260505054517 12 128 1.6 3.2 0.00 0.03 0.00 89 1009.8
20260505054017 12 119 1.6 3.2 0.00 0.03 0.00 89 1009.8
20260505053518 12 176 1.6 4.8 0.00 0.03 0.00 89 1009.8
20260505053018 12 236 1.6 4.8 0.00 0.03 0.00 89 1009.7
20260505052517 12 236 1.6 3.2 0.00 0.03 0.00 90 1009.7
20260505052018 12 355 0.0 3.2 0.00 0.03 0.00 90 1009.7
20260505051519 12 321 0.0 3.2 0.00 0.03 0.00 90 1009.7
20260505051018 12 298 0.0 4.8 0.00 0.03 0.00 90 1009.6
20260505050518 12 310 1.6 6.4 0.00 0.03 0.00 90 1009.7
20260505041518 11 53 0.0 0.0 0.00 0.03 0.00 89 1009.6
20260505041018 11 51 0.0 0.0 0.00 0.03 0.00 89 1009.6
20260505040517 11 51 0.0 0.0 0.00 0.03 0.00 89 1009.8
20260505040018 10 51 1.6 3.2 0.00 0.03 0.00 89 1009.7
20260505035518 10 128 0.0 0.0 0.00 0.03 0.00 89 1009.8
20260505035018 10 128 0.0 1.6 0.00 0.03 0.00 88 1009.8
20260505034518 10 128 0.0 0.0 0.00 0.03 0.00 88 1009.9
20260505034019 10 128 0.0 0.0 0.00 0.03 0.00 88 1009.9
20260505033518 10 128 0.0 1.6 0.00 0.03 0.00 88 1009.9
20260505033019 10 128 1.6 3.2 0.00 0.03 0.00 88 1009.9
20260505032517 10 107 0.0 0.0 0.00 0.03 0.00 88 1009.9
20260505031752 11 107 0.0 1.6 0.00 0.03 0.00 89 1009.9
20260505031251 11 101 0.0 0.0 0.00 0.03 0.00 89 1010.0
20260505030751 11 101 0.0 1.6 0.00 0.03 0.00 88 1010.0
20260505030251 11 100 0.0 1.6 0.00 0.03 0.00 88 1010.0
20260505025751 11 102 0.0 3.2 0.00 0.03 0.00 89 1010.1
20260505025250 11 131 1.6 3.2 0.00 0.03 0.00 88 1010.2
20260505024751 11 156 1.6 4.8 0.00 0.03 0.00 88 1010.1
20260505024250 11 134 0.0 3.2 0.00 0.03 0.00 88 1010.1
20260505023751 10 182 0.0 1.6 0.00 0.03 0.00 88 1010.1
20260505023251 10 219 0.0 3.2 0.00 0.03 0.00 88 1010.2
20260505022750 10 203 0.0 1.6 0.00 0.03 0.00 88 1010.2
20260505022251 10 63 0.0 1.6 0.00 0.03 0.00 87 1010.3
20260505021751 10 63 0.0 0.0 0.00 0.03 0.00 87 1010.3
20260505021251 10 63 0.0 0.0 0.00 0.03 0.00 87 1010.4
20260505020751 10 63 0.0 0.0 0.00 0.03 0.00 87 1010.4
20260505020250 10 63 0.0 1.6 0.00 0.03 0.00 87 1010.6
20260505015751 10 63 1.6 3.2 0.00 0.03 0.00 87 1010.6
20260505015250 10 61 1.6 3.2 0.00 0.03 0.00 87 1010.8
20260505014750 11 322 0.0 0.0 0.00 0.03 0.00 86 1010.8
20260505014251 11 321 0.0 1.6 0.00 0.03 0.00 87 1010.8
20260505013750 11 321 0.0 1.6 0.00 0.03 0.00 87 1010.8
20260505013252 11 325 0.0 1.6 0.00 0.03 0.00 87 1010.8
20260505012751 11 84 0.0 1.6 0.00 0.03 0.00 86 1010.9
20260505012250 11 153 0.0 1.6 0.00 0.03 0.00 86 1010.9
20260505011750 11 153 0.0 0.0 0.00 0.03 0.00 86 1011.1
20260505011251 11 153 0.0 0.0 0.00 0.03 0.00 86 1011.1
20260505010751 11 170 0.0 0.0 0.00 0.03 0.00 86 1011.2
20260505010250 11 170 0.0 0.0 0.00 0.03 0.00 86 1011.2
20260505005750 11 170 0.0 3.2 0.00 0.03 0.00 86 1011.3
20260505005251 11 134 0.0 1.6 0.00 0.03 0.00 86 1011.3
20260505004751 11 130 0.0 0.0 0.00 0.03 0.00 85 1011.3
20260505004250 11 130 0.0 0.0 0.00 0.03 0.00 85 1011.5
20260505003751 11 130 0.0 3.2 0.00 0.03 0.00 85 1011.4
20260505003251 11 210 0.0 1.6 0.00 0.03 0.00 85 1011.5